SCP
0 0 0 0 0 0 0 0 0 0 0 0 0 0 0 0 0 0 0 0 1 1 1 1 0 0 0 0 0 0 0 0 0 0 0 0 0 0 0 0 0 0 0 0
0 0 0 0 0 0 0 0 0 0 0 0 0 0 0 0 0 0 0 1 1 1 1 1 0 0 0 0 0 0 0 0 0 0 0 0 0 0 0 0 0 0 0 0
0 0 0 0 0 0 0 0 0 0 0 0 0 0 0 0 0 0 1 1 1 1 1 1 0 0 0 0 0 0 0 0 0 0 0 0 0 0 0 0 0 0 0 0
0 0 0 0 0 0 0 0 0 0 0 0 0 0 0 0 1 1 1 1 1 1 1 0 0 0 0 0 0 0 0 0 0 0 0 0 0 0 0 0 0 0 0 0
0 0 0 0 0 0 0 0 0 0 0 0 0 0 0 0 1 1 1 1 1 1 0 0 0 0 0 0 0 0 0 0 0 0 0 0 0 0 0 0 0 0 0 0
0 0 0 0 0 0 0 0 0 0 0 0 0 0 0 0 0 0 1 1 1 0 0 0 0 0 0 0 0 0 0 0 0 0 0 0 0 0 0 0 0 0 0 0
0 0 0 0 0 0 0 0 0 0 0 0 0 0 0 0 0 0 0 0 0 0 0 0 0 0 0 0 0 0 0 0 0 0 0 0 0 0 0 0 0 0 0 0
0 0 0 1 0 0 0 1 1 0 0 0 0 0 0 0 0 0 0 0 0 0 0 0 0 0 0 0 0 0 0 0 0 0 0 0 0 0 0 0 0 0 0 0
1 1 1 1 0 0 1 1 1 0 0 0 0 0 0 0 0 0 0 0 0 0 0 0 0 0 0 0 0 0 0 0 0 0 0 0 0 0 0 0 0 0 0 0
1 1 1 1 1 1 1 1 0 0 0 0 0 0 0 0 0 0 0 0 0 0 0 0 0 0 0 0 0 0 0 0 0 0 0 0 0 0 0 0 0 0 0 0
1 1 1 1 1 1 1 1 0 0 0 0 0 0 0 0 0 0 0 0 0 0 0 0 0 0 0 0 0 0 0 0 0 0 0 0 0 0 0 0 0 0 0 0
1 1 1 1 1 1 1 0 0 0 0 0 0 0 0 0 1 1 0 0 0 0 0 0 0 0 0 0 0 1 0 0 0 0 0 0 0 0 0 0 0 0 0 0
1 1 1 1 1 1 0 0 0 0 0 0 0 0 0 0 1 0 0 0 0 0 0 0 0 0 0 0 1 1 1 0 0 0 0 0 0 0 0 0 0 0 0 0
1 0 0 0 0 0 0 0 0 0 0 0 0 0 0 0 0 0 0 0 0 0 0 0 0 0 0 0 1 1 1 0 0 0 0 0 0 0 0 0 0 0 0 0
1 0 0 0 0 0 0 0 0 0 0 0 0 0 0 0 0 0 0 0 0 0 0 0 0 0 1 1 1 1 0 0 0 0 0 0 0 0 0 0 0 0 0 0
1 1 1 0 0 0 0 0 0 0 0 0 0 0 0 0 0 0 0 0 0 0 0 0 1 1 1 1 1 1 1 0 0 0 0 0 0 0 0 0 0 0 0 0
1 1 1 0 0 0 0 0 0 0 0 0 0 0 0 0 0 0 0 0 0 0 0 0 0 1 1 1 1 1 0 0 0 0 0 0 0 0 0 0 0 0 0 0
0 0 0 0 0 0 0 0 0 0 0 0 0 0 0 0 0 0 0 0 0 0 0 0 0 0 0 1 1 0 0 0 0 0 0 0 0 0 0 0 0 0 0 0
0 0 0 0 0 0 0 0 0 0 0 0 0 0 0 0 0 0 0 0 0 0 0 0 0 0 0 0 0 0 0 0 0 0 0 0 0 0 0 0 0 0 0 0
0 0 0 0 0 0 0 0 0 0 0 0 0 0 0 0 0 0 0 0 0 0 0 0 0 0 0 0 0 0 0 0 0 0 0 0 0 0 0 0 0 0 0 0
0 0 0 0 0 0 0 0 0 0 0 0 0 0 0 0 0 0 0 0 0 0 0 0 0 0 0 0 0 0 0 0 0 0 0 0 0 0 0 0 0 0 0 0
0 0 0 0 0 0 0 0 0 0 0 0 0 0 0 0 0 0 0 0 0 0 0 0 0 0 0 0 0 0 0 0 0 0 0 0 0 0 0 0 0 0 0 0
0 0 0 0 0 0 0 0 0 0 0 0 0 0 0 0 0 0 0 0 0 0 0 0 0 0 0 0 0 0 0 0 0 0 0 0 0 0 0 0 0 0 0 0
0 0 0 0 0 0 0 0 0 0 0 0 0 0 0 0 0 0 0 0 0 0 0 0 0 0 0 0 0 0 0 0 0 0 0 0 0 0 0 0 0 0 0 0
0 0 0 0 0 0 0 0 0 0 0 0 0 0 0 0 0 0 0 0 0 0 0 0 0 0 0 0 0 0 0 0 1 0 0 0 0 0 0 0 0 0 0 0
0 0 0 0 0 0 0 0 0 0 0 0 0 0 0 0 0 0 0 0 0 0 0 0 0 0 0 0 0 0 0 0 0 0 0 0 0 0 0 0 0 0 0 0
0 0 0 0 0 0 0 0 0 0 0 0 0 0 0 0 0 0 0 0 0 0 0 0 0 0 0 0 0 0 0 0 0 0 0 0 0 0 0 0 0 0 0 0
Wind_Speed
8 6 6 8 8 9 11 10 10 7 6 4 3 6 8 9 9 9 9 9 8 7 5 5 4 3 3 3 3 4 5 6 7 7 8 8 9 9 9 9 10 10 10 10
9 8 8 10 11 11 11 11 10 9 8 1 1 4 7 9 9 10 10 9 8 7 6 5 4 3 3 3 4 4 6 7 7 7 8 8 9 9 9 9 9 10 10 10
10 6 8 11 9 9 8 8 9 8 3 3 4 6 7 9 9 9 9 8 7 6 6 5 4 3 4 4 4 5 6 7 7 8 8 9 9 10 9 9 10 10 10 10
8 6 9 2 2 4 6 7 6 6 2 2 3 3 5 6 8 8 8 8 7 6 5 5 4 4 4 4 4 5 6 7 7 8 9 9 9 9 9 9 9 9 10 11
7 9 8 3 3 4 5 5 4 5 3 3 3 4 7 7 7 7 7 7 6 5 5 4 4 3 4 5 5 6 6 7 7 8 9 9 10 10 9 9 10 10 10 10
7 8 6 1 5 2 4 5 3 5 5 6 7 6 2 8 8 8 7 6 6 6 5 5 4 3 4 5 6 6 7 7 7 8 9 10 10 10 9 9 10 10 10 10
9 8 4 5 5 5 5 3 3 3 5 8 7 3 4 7 8 8 8 7 7 6 6 5 4 4 5 6 6 6 7 7 8 8 9 9 9 9 9 9 10 10 11 10
6 7 1 5 4 3 5 5 3 3 4 7 6 4 5 6 8 8 8 8 8 6 5 5 5 5 6 6 6 6 7 8 8 8 8 8 8 9 9 9 10 10 9 9
3 2 5 2 3 5 6 7 6 5 5 6 7 7 7 7 7 8 8 7 7 7 6 5 5 6 7 6 5 6 7 8 8 9 8 8 8 9 9 8 8 8 8 8
4 2 2 2 4 5 6 7 7 6 5 5 7 7 7 7 7 7 8 7 7 7 6 6 5 6 6 6 6 6 8 8 8 8 9 8 7 8 8 8 8 8 8 8
6 4 5 3 7 9 9 7 6 4 3 4 5 6 6 6 6 6 6 6 6 6 6 6 6 6 6 6 6 7 8 8 8 8 8 7 8 7 8 8 7 8 9 9
5 6 7 8 10 11 9 7 5 4 2 1 3 4 4 4 4 5 5 5 5 6 6 6 6 7 6 6 6 7 8 8 7 7 6 7 8 8 7 9 9 11 12 12
6 8 8 8 8 9 7 6 5 4 3 2 1 1 1 2 2 3 4 5 6 6 6 6 7 7 7 6 7 8 8 8 7 7 7 7 8 8 8 7 10 13 13 13
4 3 3 6 7 8 8 7 5 5 5 4 3 2 1 0 0 2 2 3 4 5 6 6 6 7 6 6 7 8 9 8 8 8 8 8 8 8 8 9 9 7 7 11
6 5 5 6 7 8 8 7 7 7 7 6 5 4 3 2 2 2 2 2 3 5 5 6 7 7 6 7 8 9 8 7 6 7 8 8 8 8 8 9 8 8 8 5
6 8 9 9 10 10 10 10 9 9 8 7 6 5 4 3 3 2 2 3 4 5 5 6 7 7 6 7 8 8 8 8 8 8 8 8 8 8 8 8 8 8 8 7
8 10 11 11 11 11 11 11 10 9 8 8 7 6 5 4 4 4 4 4 4 5 6 6 7 7 7 8 8 8 7 6 8 9 9 8 7 7 8 8 8 8 7 5
9 9 9 9 10 10 10 10 10 10 9 8 8 7 7 6 6 6 6 5 5 6 6 7 7 8 8 8 7 7 7 7 7 7 7 7 7 8 8 8 9 9 8 5
9 9 9 9 9 8 9 9 9 9 9 9 9 8 8 7 7 7 8 7 7 8 7 7 6 8 8 7 6 6 7 8 7 7 7 7 8 8 8 7 8 8 7 7
7 7 8 8 8 8 8 9 9 9 9 9 9 9 9 10 9 9 8 8 7 7 8 8 7 7 7 6 6 7 8 8 8 7 7 7 7 7 7 7 8 7 7 6
5 6 7 7 8 8 8 9 9 9 9 9 9 10 10 10 10 9 9 8 7 7 8 7 6 6 6 5 6 8 7 7 7 7 6 6 7 7 7 7 7 7 6 6
5 6 7 7 8 8 8 7 8 9 9 9 10 10 11 11 11 10 8 7 8 6 7 7 7 5 5 5 6 7 7 7 6 6 6 6 6 6 6 7 7 6 6 6
5 6 6 7 8 8 8 7 7 8 9 9 10 10 11 11 10 10 10 7 8 8 8 8 6 4 4 7 7 6 6 6 6 6 5 5 5 6 6 7 6 6 6 5
5 6 7 8 8 8 8 8 8 7 9 9 9 9 10 9 9 8 9 8 8 8 9 6 3 4 7 7 6 5 5 5 5 5 5 5 5 5 5 5 6 6 5 6
7 8 8 9 9 8 8 9 9 9 9 8 10 10 9 8 9 9 10 11 9 8 8 5 3 5 7 6 5 4 5 4 4 4 5 4 4 5 4 4 4 5 5 5
8 8 7 8 8 8 8 8 8 8 9 9 9 9 9 8 10 9 8 10 11 8 8 6 5 5 5 5 5 4 4 3 3 4 4 4 5 4 4 4 5 4 4 4
9 8 7 8 8 8 8 8 8 9 9 10 10 10 10 10 10 10 11 10 9 8 7 6 6 5 5 4 4 3 3 3 3 3 3 3 3 3 3 4 4 3 4 4
Wind_Direction
278 283 271 270 261 233 237 265 282 292 292 297 222 208 192 183 182 181 182 185 188 193 192 197 209 226 257 282 290 297 297 299 305 305 304 302 303 302 303 300 297 298 294 289
265 260 262 264 263 257 248 255 263 272 280 331 143 187 182 185 189 192 192 191 191 195 195 204 218 237 261 274 287 290 292 299 305 304 303 304 304 304 302 300 301 299 295 292
266 263 262 257 253 250 241 237 251 264 294 126 181 191 196 195 198 201 196 191 193 196 199 205 216 229 257 274 280 283 290 298 304 303 304 307 308 307 305 303 302 300 296 292
264 260 257 299 70 273 261 255 248 266 258 207 212 189 200 201 203 203 195 192 192 195 194 198 204 217 246 267 273 282 292 299 304 305 304 307 305 304 303 301 301 299 297 295
258 252 254 228 185 219 241 259 229 237 225 170 153 189 200 194 201 202 194 191 187 190 190 192 207 222 248 266 276 285 295 302 306 307 305 303 303 304 304 302 300 298 296 294
242 260 262 106 111 151 250 244 157 197 199 175 186 238 165 158 183 191 186 182 182 182 187 194 204 219 251 267 279 291 301 303 304 302 300 299 301 301 301 299 295 296 298 297
242 249 258 72 128 184 244 29 82 204 205 190 207 269 97 147 172 184 186 184 184 189 196 200 201 217 250 271 283 295 301 297 295 296 296 294 295 294 295 295 297 297 296 294
235 244 255 84 163 237 357 4 329 272 233 213 215 198 171 173 179 186 190 191 192 196 201 200 205 223 250 267 282 292 292 290 292 294 295 298 296 293 292 293 291 290 292 295
288 346 50 23 325 334 333 308 301 288 264 231 225 217 204 196 194 196 197 197 199 202 206 207 209 227 253 268 278 283 285 286 291 294 292 290 292 293 291 288 289 298 302 304
264 246 1 353 338 332 318 306 300 288 264 237 227 223 214 204 198 199 200 199 202 208 215 218 219 229 248 261 266 271 278 284 287 287 286 291 292 290 296 300 300 302 304 305
260 302 310 341 3 349 337 325 315 304 273 242 231 224 213 204 199 197 196 198 201 210 223 231 228 233 242 250 256 266 275 280 283 283 287 291 286 289 292 295 303 299 304 306
312 358 326 330 344 343 339 340 337 330 322 283 245 235 221 210 198 195 195 193 202 214 224 232 234 237 240 241 245 260 271 276 283 287 291 289 292 291 254 249 259 250 252 266
313 319 320 321 333 345 351 360 9 15 14 8 354 285 232 216 198 194 198 203 210 220 228 233 237 243 244 238 239 251 267 279 284 288 290 288 290 296 301 278 242 240 240 241
340 326 354 5 5 6 4 10 27 38 39 34 33 25 10 11 180 217 227 233 232 235 240 241 246 250 248 238 239 249 261 267 265 274 280 285 287 292 295 298 301 298 251 227
36 39 37 24 21 22 20 24 33 35 35 32 31 26 19 5 330 295 279 263 251 248 250 252 254 256 249 241 241 249 258 265 270 281 281 280 283 286 288 290 293 298 304 276
62 60 54 45 36 31 29 29 28 26 27 25 22 14 1 342 327 316 296 272 260 259 261 261 260 262 254 246 246 248 249 245 253 274 279 279 279 284 289 293 297 299 301 306
64 54 45 39 36 32 30 26 24 19 18 16 9 2 350 342 333 321 309 297 278 274 271 269 270 270 257 245 246 254 261 247 219 251 266 277 285 289 291 293 295 297 299 309
62 55 47 37 30 26 24 22 20 16 10 5 360 359 352 346 335 328 322 309 292 283 279 277 275 272 260 248 246 258 260 264 264 266 276 281 290 290 286 287 293 298 301 298
59 49 41 34 26 21 17 13 9 6 3 359 355 352 347 340 335 327 319 308 298 292 297 296 281 265 258 247 244 246 254 260 265 267 272 275 272 276 284 288 293 299 306 312
47 37 30 26 21 16 9 4 358 356 355 352 348 344 340 338 333 325 316 303 303 315 321 314 295 275 265 251 236 252 251 253 261 268 271 278 284 290 290 290 292 299 306 312
27 16 11 9 6 4 0 353 347 344 346 344 341 337 335 333 331 329 320 312 327 334 319 300 283 282 275 269 231 252 256 255 259 265 272 280 286 290 291 291 294 299 304 309
3 358 355 352 348 345 345 339 338 337 338 337 336 336 332 328 326 322 312 313 323 340 318 306 301 315 313 286 259 257 258 260 262 265 270 278 286 292 293 298 298 301 306 311
338 337 334 333 330 325 323 325 330 331 332 332 332 333 332 327 321 317 314 327 325 333 311 308 328 330 289 268 264 259 259 261 265 271 277 285 288 291 296 301 302 306 312 317
308 310 313 313 310 306 310 318 321 320 320 317 321 330 326 320 320 321 322 323 323 319 311 324 309 279 264 266 266 265 264 266 270 274 279 285 291 297 301 305 308 311 315 316
294 297 299 299 295 298 305 303 302 304 305 312 317 320 321 322 321 322 319 318 323 312 313 317 273 262 269 278 276 273 269 276 287 290 286 292 295 297 302 309 311 312 316 317
284 286 294 294 296 296 295 299 304 309 310 311 314 317 319 320 317 314 311 314 317 315 310 312 309 289 290 290 283 277 277 270 258 263 284 293 293 302 311 317 316 318 322 323
274 274 270 272 276 281 289 295 298 302 305 307 311 314 314 314 314 314 313 310 311 312 313 311 307 303 305 309 305 294 289 288 288 291 291 290 296 304 308 309 310 316 318 323